Weather History for Clinton-Sherman, OK

Change the Weather History Date:

Tuesday, November 5, 2013

  Actual Average Record
Temperature  
Mean Temperature 56 °F -  
Max Temperature 66 °F 60 °F 78 °F (2008)
Min Temperature 44 °F 41 °F 33 °F (2010)
Degree Days  
Heating Degree Days 9    
Growing Degree Days 6 (Base 50)    
Moisture  
Dew Point 56 °F    
Average Humidity 92    
Maximum Humidity 100    
Minimum Humidity 80    
Precipitation  
Precipitation 0.90 in - - ()
Sea Level Pressure  
Sea Level Pressure 29.94 in    
Wind  
Wind Speed 18 mph (South)    
Max Wind Speed 33 mph    
Max Gust Speed 41 mph    
Visibility 7 miles    
Events Fog , Rain , Thunderstorm    
Averages and records for this station are not official NWS values.
T = Trace of Precipitation, MM = Missing Value Source: NWS Daily Summary

Daily Weather History Graph

Daily Weather History Graph

Search for Another Location

Airport:

Trip Planner

Search our weather history database for the weather conditions in past years. The results will help you decide how hot, cold, wet, or windy it might be!

Date:

Astronomy

Nov. 05, 2013 Rise Set
Actual Time 7:02 AM CST 5:37 PM CST
Civil Twilight 6:35 AM CST 6:04 PM CST
Nautical Twilight 6:05 AM CST 6:34 PM CST
Astronomical Twilight 5:35 AM CST 7:04 PM CST
Moon 9:15 AM CST (11/5) 7:44 PM CST (11/5)
Length of Visible Light 11h 28m
Length of Day
10h 35m
Waxing Crescent, 7% of the Moon is Illuminated
Nov 5
Waxing Crescent
Nov 9
First Quarter
Nov 17
Full
Nov 25
Last Quarter
Dec 2
New

Hourly Weather History & Observations

Time (CST) Temp. Windchill Dew Point Humidity Pressure Visibility Wind Dir Wind Speed Gust Speed Precip Events Conditions
12:53 AM 57.0 °F - 54.0 °F 89% 29.96 in 10.0 mi South 18.4 mph - N/A   Overcast
1:36 AM 57.2 °F - 53.6 °F 88% 29.99 in 10.0 mi South 18.4 mph 26.5 mph N/A   Overcast
1:43 AM 57.2 °F - 53.6 °F 88% 29.99 in 10.0 mi South 19.6 mph - N/A   Overcast
1:53 AM 57.9 °F - 55.0 °F 90% 29.96 in 10.0 mi South 18.4 mph - N/A   Overcast
2:53 AM 57.9 °F - 55.0 °F 90% 29.95 in 10.0 mi South 18.4 mph - N/A   Overcast
3:03 AM 57.2 °F - 55.4 °F 94% 29.99 in 9.0 mi South 19.6 mph 25.3 mph N/A   Overcast
3:11 AM 57.2 °F - 55.4 °F 94% 29.98 in 9.0 mi South 19.6 mph - N/A   Overcast
3:22 AM 57.2 °F - 55.4 °F 94% 29.98 in 9.0 mi SSE 16.1 mph 25.3 mph N/A   Overcast
3:35 AM 57.2 °F - 55.4 °F 94% 29.98 in 9.0 mi SSE 18.4 mph - N/A   Overcast
3:44 AM 57.2 °F - 55.4 °F 94% 29.98 in 9.0 mi SSE 16.1 mph - N/A   Overcast
3:53 AM 57.9 °F - 55.0 °F 90% 29.94 in 10.0 mi SSE 15.0 mph - N/A   Overcast
4:01 AM 57.2 °F - 55.4 °F 94% 29.98 in 10.0 mi SSE 16.1 mph - N/A   Overcast
4:06 AM 57.2 °F - 55.4 °F 94% 29.98 in 10.0 mi SSE 16.1 mph - N/A   Overcast
4:53 AM 57.9 °F - 55.9 °F 93% 29.93 in 10.0 mi SSE 15.0 mph - N/A   Overcast
5:43 AM 57.2 °F - 57.2 °F 100% 29.96 in 4.0 mi SSE 17.3 mph - 0.00 in Rain Light Rain
5:53 AM 57.9 °F - 57.0 °F 97% 29.93 in 3.0 mi SSE 16.1 mph - 0.00 in Rain Light Rain
6:53 AM 57.9 °F - 57.0 °F 97% 29.92 in 4.0 mi SSE 18.4 mph - 0.02 in Rain Light Rain
7:50 AM 57.2 °F - 57.2 °F 100% 29.96 in 2.0 mi SSE 19.6 mph 24.2 mph 0.01 in Rain Light Rain
7:53 AM 57.9 °F - 57.9 °F 100% 29.93 in 2.0 mi SSE 17.3 mph - 0.01 in Rain Light Rain
8:53 AM 59.0 °F - 57.9 °F 96% 29.94 in 2.5 mi SSE 19.6 mph - 0.01 in Rain Light Rain
9:03 AM 59.0 °F - 59.0 °F 100% 29.97 in 3.0 mi SSE 20.7 mph - 0.00 in Rain Light Rain
9:21 AM 59.0 °F - 59.0 °F 100% 29.97 in 1.0 mi SSE 20.7 mph - 0.00 in Rain Light Rain
9:33 AM 59.0 °F - 59.0 °F 100% 29.97 in 0.5 mi SSE 21.9 mph - 0.00 in Fog , Rain Light Rain
9:53 AM 59.0 °F - 59.0 °F 100% 29.94 in 0.5 mi South 19.6 mph - 0.00 in Fog , Rain Light Rain
10:00 AM 59.0 °F - 59.0 °F 100% 29.97 in 1.2 mi South 18.4 mph - 0.00 in Rain Light Rain
10:46 AM 60.8 °F - 60.8 °F 100% 29.96 in 2.0 mi South 19.6 mph - 0.00 in Rain Light Rain
10:53 AM 60.1 °F - 60.1 °F 100% 29.93 in 2.0 mi South 19.6 mph - 0.00 in Rain Light Rain
11:27 AM 60.8 °F - 60.8 °F 100% 29.95 in 3.0 mi South 18.4 mph - 0.01 in Rain Light Rain
11:51 AM 60.8 °F - 60.8 °F 100% 29.95 in 2.5 mi South 17.3 mph - 0.01 in Rain Light Rain
11:53 AM 60.1 °F - 60.1 °F 100% 29.92 in 2.5 mi South 15.0 mph - 0.02 in Rain Light Rain
12:14 PM 60.8 °F - 60.8 °F 100% 29.94 in 4.0 mi South 16.1 mph - 0.00 in Rain Light Rain
12:53 PM 62.1 °F - 61.0 °F 96% 29.87 in 8.0 mi South 17.3 mph - 0.01 in Rain Light Rain
1:41 PM 62.6 °F - 60.8 °F 94% 29.90 in 8.0 mi South 15.0 mph - 0.00 in Rain Light Rain
1:53 PM 64.0 °F - 62.1 °F 93% 29.86 in 9.0 mi South 13.8 mph - 0.00 in   Overcast
2:49 PM 66.2 °F - 62.6 °F 88% 29.87 in 10.0 mi South 16.1 mph - N/A   Mostly Cloudy
2:53 PM 66.9 °F - 62.1 °F 84% 29.83 in 10.0 mi South 13.8 mph - N/A   Mostly Cloudy
3:00 PM 66.2 °F - 62.6 °F 88% 29.87 in 10.0 mi SSW 17.3 mph - N/A   Mostly Cloudy
3:36 PM 66.2 °F - 60.8 °F 83% 29.88 in 10.0 mi South 11.5 mph - N/A   Overcast
3:44 PM 66.2 °F - 62.6 °F 88% 29.88 in 10.0 mi South 9.2 mph - N/A   Overcast
3:53 PM 66.0 °F - 62.1 °F 87% 29.84 in 10.0 mi South 5.8 mph - N/A   Overcast
4:37 PM 66.2 °F - 62.6 °F 88% 29.88 in 6.0 mi South 4.6 mph - 0.01 in Rain Light Rain
4:53 PM 64.9 °F - 62.1 °F 90% 29.84 in 3.0 mi South 8.1 mph - 0.09 in Rain , Thunderstorm Thunderstorms and Rain
4:57 PM 64.4 °F - 62.6 °F 94% 29.87 in 1.8 mi South 9.2 mph - 0.07 in Rain , Thunderstorm Heavy Thunderstorms and Rain
5:13 PM 64.4 °F - 62.6 °F 94% 29.87 in 3.0 mi SW 8.1 mph - 0.14 in Rain Light Rain
5:23 PM 66.2 °F - 62.6 °F 88% 29.86 in 10.0 mi South 4.6 mph - 0.14 in Rain , Thunderstorm Light Thunderstorms and Rain
5:50 PM 62.6 °F - 60.8 °F 94% 29.86 in - SW 6.9 mph - 0.32 in Rain , Thunderstorm Heavy Thunderstorms and Rain
5:53 PM 62.1 °F - 60.1 °F 93% 29.83 in 2.0 mi Variable 5.8 mph - 0.34 in Rain , Thunderstorm Heavy Thunderstorms and Rain
6:06 PM 59.0 °F - 55.4 °F 88% 29.89 in 4.0 mi South 13.8 mph - 0.09 in Rain , Thunderstorm Heavy Thunderstorms and Rain
6:51 PM 59.0 °F - 57.2 °F 94% 29.89 in 9.0 mi SSE 8.1 mph - 0.14 in Rain , Thunderstorm Light Thunderstorms and Rain
6:53 PM 59.0 °F - 57.9 °F 96% 29.87 in 9.0 mi SSE 9.2 mph - 0.14 in Rain , Thunderstorm Light Thunderstorms and Rain
7:30 PM 53.6 °F - 51.8 °F 94% 29.94 in 3.0 mi NNW 33.4 mph 40.3 mph 0.17 in Rain , Thunderstorm Heavy Thunderstorms and Rain
7:36 PM 53.6 °F - 50.0 °F 88% 29.94 in 3.0 mi NNW 29.9 mph 41.4 mph 0.18 in Rain , Thunderstorm Light Rain
7:53 PM 52.0 °F - 50.0 °F 93% 29.91 in 8.0 mi North 27.6 mph 35.7 mph 0.19 in Rain , Thunderstorm Light Rain
8:00 PM 51.8 °F - 48.2 °F 88% 29.94 in 8.0 mi North 26.5 mph 35.7 mph 0.01 in Rain , Thunderstorm Light Rain
8:09 PM 51.8 °F - 48.2 °F 88% 29.99 in 10.0 mi NNW 25.3 mph 29.9 mph 0.01 in Rain Light Rain
8:20 PM 51.8 °F - 46.4 °F 82% 30.01 in 10.0 mi North 24.2 mph 33.4 mph 0.01 in   Overcast
8:53 PM 50.0 °F - 45.0 °F 83% 30.01 in 10.0 mi North 25.3 mph 35.7 mph 0.01 in Rain , Thunderstorm Light Rain
9:14 PM 48.2 °F - 46.4 °F 93% 30.04 in 10.0 mi North 19.6 mph - 0.03 in Rain Rain
9:23 PM 48.2 °F - 44.6 °F 87% 30.06 in 10.0 mi North 23.0 mph 29.9 mph 0.04 in Rain Light Rain
9:44 PM 48.2 °F - 44.6 °F 87% 30.06 in 10.0 mi North 21.9 mph 32.2 mph 0.05 in Rain Light Rain
9:53 PM 48.0 °F - 42.1 °F 80% 30.04 in 10.0 mi North 29.9 mph 36.8 mph 0.06 in   Overcast
10:53 PM 46.9 °F - 41.0 °F 80% 30.06 in 10.0 mi NNW 28.8 mph 34.5 mph N/A   Overcast
11:53 PM 44.1 °F 35.7 °F 39.0 °F 82% 30.09 in 10.0 mi NNW 20.7 mph 29.9 mph N/A   Mostly Cloudy